Theta_e
334 344 356 354 351 349 347 345 345 344 343 341 340 339 338 337 336 335 334 334 334 334 333 332 331 331 330 329 329 330 329 330 333 335 339 343 345 348 352 354 355 353 357
336 346 356 354 352 349 349 348 347 346 345 344 340 339 338 337 336 335 334 334 334 333 334 334 333 333 332 332 331 331 331 330 331 333 334 336 338 341 347 352 351 352 355
338 346 351 353 353 351 350 349 348 347 346 345 343 340 338 337 337 336 335 335 334 334 334 334 334 334 334 334 335 334 334 333 333 332 332 328 329 336 340 349 351 352 355
341 346 348 353 352 352 350 349 348 347 346 345 344 340 338 338 337 337 336 335 335 336 336 336 336 336 337 336 336 337 337 338 337 337 330 328 327 334 337 340 352 352 351
340 345 345 353 352 351 351 350 348 347 346 346 343 341 340 339 339 339 338 337 337 338 337 338 340 340 340 340 340 339 340 340 340 338 332 329 327 335 342 343 350 353 352
339 343 347 353 352 352 351 350 349 347 347 347 345 343 341 340 341 340 338 338 338 339 340 340 342 342 342 342 342 342 342 343 342 334 333 334 334 338 343 354 353 353 353
336 339 343 352 352 352 351 350 349 348 347 347 347 345 344 344 343 341 339 340 340 341 342 343 343 344 344 344 344 344 344 343 338 334 333 332 333 341 345 354 353 354 354
334 336 338 351 352 352 352 350 349 348 347 347 347 347 346 345 344 342 341 341 342 342 343 344 345 345 344 342 342 342 342 343 339 334 333 331 334 341 348 354 354 353 352
333 333 335 344 348 353 351 350 349 348 347 347 348 347 347 347 346 345 344 343 342 343 344 345 346 345 344 342 340 340 340 342 336 333 333 330 337 341 345 351 352 354 353
331 330 332 339 342 344 345 351 350 348 348 347 348 348 347 347 348 347 346 346 343 344 345 346 347 346 344 342 339 339 339 340 334 333 333 332 339 341 342 350 349 350 351
334 330 330 335 338 340 341 344 349 349 349 348 348 349 345 341 342 342 345 345 345 345 347 347 347 347 344 340 340 339 338 331 332 332 332 338 341 341 342 348 351 350 350
330 332 334 334 334 336 338 337 342 342 341 342 341 341 341 338 337 341 342 345 345 346 348 349 348 346 342 332 330 336 330 329 331 331 331 340 341 340 342 346 348 350 348
326 332 335 335 335 333 335 336 339 340 339 340 339 337 338 338 337 339 335 337 338 345 340 343 343 339 333 330 328 326 326 326 329 331 334 339 340 340 342 344 347 345 348
315 325 335 337 335 334 333 335 336 338 338 337 338 336 336 335 333 333 333 331 331 335 338 336 333 332 331 331 328 325 324 324 327 329 330 339 339 340 341 343 343 343 344
311 316 329 336 336 336 333 334 335 337 336 335 336 337 336 334 331 331 329 330 331 331 333 330 329 329 328 328 328 327 327 327 329 328 327 337 340 342 343 342 341 341 341
314 313 323 335 336 337 336 334 334 335 336 335 336 337 336 334 331 330 330 329 328 329 330 329 328 326 326 327 326 326 326 326 328 328 328 327 338 341 343 344 343 341 342
315 315 316 333 336 336 336 335 335 336 336 335 335 336 336 334 331 330 329 326 328 327 327 327 329 326 326 324 324 324 324 325 325 326 329 330 329 339 343 343 343 341 342
313 313 314 327 335 335 335 336 335 336 336 335 335 336 336 335 334 330 330 329 328 326 325 325 327 327 324 322 321 322 322 323 324 325 325 327 329 330 339 341 342 341 340
314 314 314 321 331 335 335 334 334 335 336 336 335 335 335 335 335 331 329 328 327 325 324 324 322 322 320 321 323 322 322 321 322 326 325 326 328 330 328 336 340 340 342
314 314 315 317 324 329 329 330 331 333 332 334 335 336 336 336 334 331 331 327 326 324 323 322 322 321 322 323 323 323 322 322 323 322 324 326 324 328 328 330 329 333 342
313 313 315 318 326 330 331 331 329 331 329 328 333 336 335 335 333 331 328 326 326 324 324 322 322 321 322 322 320 318 317 320 321 322 322 323 324 326 327 329 326 329 332
315 317 318 322 330 331 332 328 328 327 325 327 331 334 334 334 334 331 326 325 324 324 322 322 324 321 317 318 314 313 309 314 319 323 321 322 322 325 324 325 327 328 329
316 320 323 328 330 331 330 328 325 325 324 323 324 326 329 332 332 330 327 326 324 323 322 322 323 318 314 314 315 312 309 307 313 319 319 320 321 321 321 323 326 328 328
318 326 329 331 332 332 330 327 327 323 321 320 322 324 327 329 329 329 328 326 324 323 321 320 321 317 315 312 314 317 314 312 308 309 317 317 319 320 320 322 324 327 327
324 326 329 332 331 330 328 328 325 322 321 321 322 323 323 325 327 328 328 327 322 321 320 320 319 317 317 314 313 313 312 312 313 310 308 314 317 317 319 321 324 328 328
325 329 330 331 327 328 327 325 324 322 320 321 321 321 322 323 324 326 326 324 322 321 320 320 319 318 317 316 315 314 313 311 309 309 306 309 315 318 322 323 324 323 325
Wind_Speed
6 13 21 20 19 18 18 18 17 17 17 17 17 17 16 15 14 13 12 12 11 10 8 7 5 4 3 3 3 3 3 4 5 5 7 6 5 7 4 5 8 7 11
13 16 22 21 20 19 18 18 17 17 17 17 18 17 17 16 15 13 12 10 10 9 8 7 6 4 2 1 1 1 2 2 3 5 6 6 6 5 8 7 8 7 10
15 15 19 21 21 20 19 18 18 17 17 17 17 18 17 16 15 14 11 10 9 9 8 7 6 5 3 2 2 1 2 3 3 4 5 4 4 6 4 7 7 11 10
15 14 16 23 22 22 20 19 19 19 18 19 18 18 18 17 15 14 13 12 10 9 8 7 6 5 4 4 3 3 3 5 5 5 2 2 5 8 8 7 6 10 11
14 14 15 24 23 23 22 21 21 20 19 19 19 18 18 17 16 15 14 13 11 10 8 7 6 6 6 5 5 5 5 6 7 5 2 3 3 7 11 11 10 9 11
13 15 19 24 23 23 23 22 21 21 20 20 20 19 18 17 16 15 15 13 12 10 9 8 7 7 7 7 7 8 8 9 8 4 4 5 5 9 12 10 13 10 11
14 14 16 24 22 21 21 22 21 22 21 20 19 19 18 17 16 16 15 14 13 11 10 9 8 8 6 8 8 8 8 10 6 5 5 4 5 11 13 7 10 10 10
16 14 13 21 22 22 22 22 21 21 21 20 19 19 18 17 16 16 15 14 13 12 11 10 10 7 7 7 8 8 9 11 8 4 5 4 8 11 9 7 9 10 11
7 10 11 14 18 22 21 21 21 21 21 20 18 18 18 17 16 15 14 13 12 12 11 11 10 8 8 9 10 9 10 11 6 4 4 3 8 11 9 7 9 11 11
5 9 13 12 14 14 14 22 22 21 20 20 19 19 18 18 17 16 13 12 13 12 12 11 11 9 9 9 10 10 11 12 5 4 4 4 9 13 11 9 8 8 10
5 6 6 10 13 14 13 14 19 22 20 20 19 19 16 9 10 12 12 14 14 13 13 12 12 10 10 10 10 11 11 3 4 3 3 11 10 12 13 12 11 10 9
12 10 12 12 14 12 9 9 12 10 10 11 11 11 9 7 7 9 11 16 16 15 13 12 13 12 11 3 3 7 2 4 4 4 3 14 13 12 12 11 12 11 10
20 9 15 15 13 12 12 8 6 6 7 8 11 9 8 6 6 6 4 4 4 10 4 8 8 4 5 3 3 3 4 4 3 3 7 14 14 13 12 11 12 12 10
11 15 15 17 13 14 9 8 10 9 9 8 10 11 8 6 6 6 4 4 4 4 5 5 3 4 5 5 5 5 5 4 3 4 6 15 14 14 13 12 11 13 12
6 10 14 14 15 13 12 9 10 11 10 10 8 10 10 9 7 6 4 4 6 4 5 4 4 4 5 6 5 5 6 6 7 3 3 15 15 13 15 14 12 12 11
9 10 12 14 16 14 15 16 12 10 9 9 8 10 12 8 7 7 6 6 4 5 5 5 6 5 5 4 5 5 6 5 5 5 4 5 15 12 11 15 15 14 12
10 11 11 16 13 16 18 14 10 9 9 9 8 9 12 10 9 8 5 4 6 5 5 4 4 4 4 3 5 4 4 5 5 5 4 4 5 11 9 15 14 13 13
10 10 8 9 13 14 14 11 9 8 8 8 8 8 12 12 10 7 6 5 4 4 4 4 4 3 3 4 3 4 4 4 5 5 5 4 4 4 7 13 13 12 11
13 11 10 10 14 16 10 7 7 8 8 7 7 7 11 12 10 7 5 4 5 4 4 4 3 3 3 4 5 4 4 4 5 3 5 5 5 4 3 5 10 10 10
10 9 8 8 9 8 5 5 4 5 4 6 7 7 11 8 9 8 6 5 5 4 3 3 4 3 3 3 3 5 3 3 3 3 4 3 4 5 4 4 3 4 10
9 8 9 9 7 9 5 6 4 6 5 4 5 8 9 8 9 7 5 5 5 5 6 4 1 4 3 3 2 2 3 4 4 4 3 3 4 5 4 4 4 3 4
14 10 9 9 9 7 5 3 4 5 3 3 5 7 8 9 10 7 6 6 5 4 4 4 4 2 2 4 3 1 1 3 2 4 3 4 4 2 4 4 4 4 5
9 10 8 7 8 7 8 7 5 6 4 3 3 4 4 7 6 7 6 5 5 4 4 4 5 6 4 2 3 4 1 3 2 2 3 4 4 3 3 4 5 5 5
9 5 6 7 9 9 9 8 13 6 5 3 4 3 4 5 5 5 5 5 5 3 4 4 4 4 3 4 1 3 1 2 1 3 2 1 3 3 4 3 5 4 5
6 6 6 8 7 8 8 10 7 6 3 4 4 7 5 4 6 6 6 5 5 4 4 5 4 4 3 3 3 2 1 2 2 2 2 1 3 2 1 1 3 4 3
7 7 7 10 6 7 8 8 9 9 7 6 5 5 4 3 4 5 5 5 5 4 5 4 4 5 5 4 3 3 4 3 3 3 1 1 1 2 2 2 2 2 2
Wind_Direction
211 163 167 170 172 171 166 159 153 146 142 138 137 137 135 134 136 138 138 141 141 138 130 121 112 97 82 81 86 68 32 7 354 358 355 24 339 333 324 198 173 156 154
134 164 166 172 173 174 171 165 161 153 150 148 146 146 144 146 148 149 150 149 148 148 146 143 140 134 138 107 22 34 45 349 337 337 335 355 352 306 306 223 184 167 168
143 162 167 171 177 176 175 170 166 159 157 155 156 156 154 156 157 155 158 163 165 163 160 160 162 162 177 204 243 298 308 297 299 307 316 351 323 300 268 288 212 184 167
147 161 168 174 180 178 177 174 169 166 165 165 167 165 162 164 164 165 169 175 179 179 179 181 183 198 205 215 234 260 272 284 288 294 350 325 313 302 299 301 210 192 187
156 164 172 179 182 180 180 178 174 171 173 173 172 170 170 171 171 173 179 183 186 189 196 203 211 217 230 231 235 246 257 270 281 294 314 307 281 291 299 281 239 190 186
165 171 178 181 186 183 182 182 178 176 178 180 177 175 176 178 178 182 186 189 195 198 206 219 230 245 248 248 249 249 257 257 269 288 294 295 304 297 309 285 189 184 186
174 182 180 183 187 188 187 186 184 181 183 186 182 180 179 183 184 187 191 194 199 204 212 225 240 256 272 263 261 265 263 260 256 262 279 284 295 301 305 203 177 179 185
172 183 182 186 189 192 190 191 190 187 187 189 188 184 182 185 189 191 196 200 202 211 215 224 239 246 252 260 261 262 268 261 260 238 267 285 289 303 307 191 176 179 193
178 179 181 187 196 197 196 193 195 193 192 189 190 191 188 186 191 194 201 206 212 216 221 234 245 244 241 254 263 267 267 268 246 243 255 269 285 292 309 219 199 188 192
181 187 191 190 195 201 198 198 197 198 196 193 192 195 193 192 195 192 202 209 217 221 225 234 240 245 244 244 257 267 269 265 262 244 256 254 272 281 283 252 223 217 198
229 209 201 207 202 203 201 202 199 201 200 199 198 200 196 193 195 196 197 208 220 222 230 232 232 235 242 247 251 263 268 255 257 251 253 265 266 276 275 271 218 212 210
216 208 194 203 209 204 204 198 199 198 201 203 199 197 195 190 185 186 199 210 221 228 230 232 234 231 245 219 246 268 277 250 244 239 249 264 267 270 266 260 223 218 209
217 198 203 207 203 197 200 188 191 193 198 202 199 184 185 188 194 194 182 201 212 233 217 228 228 215 215 220 222 239 255 258 248 235 244 259 262 256 261 252 231 226 209
214 217 205 208 201 199 192 195 193 195 199 201 199 181 174 183 191 191 189 196 210 210 209 203 204 201 217 235 215 231 240 237 238 242 244 252 257 253 248 246 230 221 224
213 225 214 198 202 196 192 195 200 202 202 199 191 187 182 188 187 185 187 199 215 192 203 198 193 198 218 230 223 205 230 237 241 224 240 253 252 251 238 233 216 226 232
248 229 215 204 204 188 197 199 201 200 200 192 192 191 187 184 178 185 198 219 207 200 201 191 198 198 219 210 236 218 229 244 242 236 234 256 263 256 239 217 216 218 224
247 248 193 206 194 197 202 205 200 197 189 192 191 181 184 181 191 190 198 201 219 194 197 197 199 186 210 220 230 228 231 241 251 252 250 237 252 261 229 207 203 218 233
248 239 214 200 194 195 199 198 199 191 183 185 183 177 181 185 181 176 195 205 202 194 183 183 173 192 188 204 231 244 236 234 246 244 236 239 243 236 213 199 207 216 235
241 240 236 193 190 196 195 185 195 170 176 175 171 177 182 183 181 172 170 202 192 184 181 172 186 173 186 217 234 243 236 232 249 246 227 222 234 232 210 232 202 210 223
257 243 240 190 182 170 141 128 126 150 156 157 170 176 174 173 163 159 181 170 188 156 178 178 193 198 218 231 244 244 246 248 229 239 238 242 225 236 200 205 216 214 213
254 225 209 184 174 149 149 158 154 179 155 153 161 163 161 161 157 153 161 174 168 176 195 175 136 225 240 202 151 319 284 247 237 215 216 234 244 227 218 198 208 197 212
252 217 213 201 161 160 155 120 142 136 137 149 158 162 162 159 159 167 167 183 166 180 188 193 190 224 210 182 146 117 315 322 248 219 190 206 230 237 221 207 211 202 194
241 228 193 157 132 126 118 112 83 80 76 94 105 111 142 156 169 163 171 162 181 186 197 194 197 182 182 195 217 143 118 236 335 353 211 192 189 209 238 214 201 203 195
233 133 136 128 134 138 136 126 146 139 148 148 136 122 132 145 165 158 156 176 189 163 180 190 182 178 140 170 207 208 148 141 151 335 351 144 169 200 222 206 175 175 183
149 148 140 127 128 137 129 138 132 115 102 107 106 124 124 145 148 144 169 166 160 178 177 181 175 185 174 145 163 148 162 61 71 120 300 13 65 30 10 259 157 175 165
144 134 137 125 127 127 125 123 133 135 127 114 115 118 131 124 130 159 164 168 165 165 183 191 198 188 186 186 185 190 164 165 183 152 153 2 118 43 30 94 145 95 116